OpenBCM V1.13 (Linux)

Packet Radio Mailbox

DB0FHN

[JN59NK Nuernberg]

 Login: GUEST





  
CX2SA  > KEPS     01.10.04 05:14l 151 Lines 3944 Bytes #999 (0) @ AMSAT
BID : ORB04274.O
Read: GUEST
Subj: Orbital Elements  04274.OSCAR
Path: DB0FHN<DB0FOR<DB0MRW<DB0HOT<OK0PBX<OK0PHK<OK0NAG<OK0PPL<DB0RES<ON0AR<
      7M3TJZ<EA5AKC<CX2SA
Sent: 041001/0308Z @:CX2SA.LAV.URY.SA #:20914 [Minas] FBB7.00e $:ORB04274.O
From: CX2SA@CX2SA.LAV.URY.SA
To  : KEPS@AMSAT


HR AMSAT ORBITAL ELEMENTS FOR OSCAR SATELLITES
FROM WA5QGD FORT WORTH,TX September 30, 2004
SEND SUBSCRIBE/UNSUBSCRIBE TO majordomo@amsat.org ONLY
BID: ORB04274.O
TO ALL RADIO AMATEURS BT

Satellite: AO-07
Catalog number: 07530
Epoch time:      04273.98301822
Element set:    0329
Inclination:      101.6723 deg
RA of node:       319.0385 deg
Eccentricity:    0.0012207
Arg of perigee:   019.7109 deg
Mean anomaly:     340.4433 deg
Mean motion:   12.53569043 rev/day
Decay rate:       -2.9e-07 rev/day^2
Epoch rev:           36704
Checksum:              275

Satellite: AO-10
Catalog number: 14129
Epoch time:      04274.51085639
Element set:     107
Inclination:       26.6726 deg
RA of node:        69.0390 deg
Eccentricity:    0.6031276
Arg of perigee:   128.3943 deg
Mean anomaly:     303.1474 deg
Mean motion:    2.05869049 rev/day
Decay rate:      .00000000 rev/day^2
Epoch rev:           16018
Checksum:              275

Satellite: UO-11
Catalog number: 14781
Epoch time:      04273.96942925
Element set:     594
Inclination:       98.1838 deg
RA of node:       260.5920 deg
Eccentricity:    0.0010445
Arg of perigee:   113.3075 deg
Mean anomaly:     246.9232 deg
Mean motion:   14.79006957 rev/day
Decay rate:       1.35e-06 rev/day^2
Epoch rev:           10333
Checksum:              303

Satellite: RS-10/11
Catalog number: 18129
Epoch time:      04273.88901115
Element set:    0508
Inclination:      082.9199 deg
RA of node:       070.6708 deg
Eccentricity:    0.0013219
Arg of perigee:   034.6957 deg
Mean anomaly:     325.5061 deg
Mean motion:   13.72745180 rev/day
Decay rate:        5.3e-07 rev/day^2
Epoch rev:           86536
Checksum:              309

Satellite: FO-20
Catalog number: 20480
Epoch time:      04273.69111423
Element set:    0719
Inclination:      099.0351 deg
RA of node:       131.4063 deg
Eccentricity:    0.0540771
Arg of perigee:   110.0711 deg
Mean anomaly:     255.9417 deg
Mean motion:   12.83341662 rev/day
Decay rate:       -3.4e-07 rev/day^2
Epoch rev:           68608
Checksum:              272

Satellite: RS-12/13
Catalog number: 21089
Epoch time:      04274.06382456
Element set:     738
Inclination:       82.9179 deg
RA of node:       103.9430 deg
Eccentricity:    0.0030883
Arg of perigee:    83.4375 deg
Mean anomaly:     277.0293 deg
Mean motion:   13.74440837 rev/day
Decay rate:        1.1e-07 rev/day^2
Epoch rev:           68476
Checksum:              319

Satellite: RS-15
Catalog number: 23439
Epoch time:      04273.91703272
Element set:    0810
Inclination:      064.8165 deg
RA of node:       168.4647 deg
Eccentricity:    0.0156034
Arg of perigee:   002.4791 deg
Mean anomaly:     357.6873 deg
Mean motion:   11.27549916 rev/day
Decay rate:       -3.9e-07 rev/day^2
Epoch rev:           40204
Checksum:              309

Satellite: FO-29
Catalog number: 24278
Epoch time:      04274.18678026
Element set:     804
Inclination:       98.5829 deg
RA of node:       352.3899 deg
Eccentricity:    0.0351239
Arg of perigee:   129.6759 deg
Mean anomaly:     233.5923 deg
Mean motion:   13.52903001 rev/day
Decay rate:       -4.7e-07 rev/day^2
Epoch rev:           40103
Checksum:              325

Satellite: SO-33
Catalog number: 25509
Epoch time:      04274.74439160
Element set:     206
Inclination:       31.4294 deg
RA of node:        58.9359 deg
Eccentricity:    0.0355423
Arg of perigee:    58.5801 deg
Mean anomaly:     304.9055 deg
Mean motion:   14.27869501 rev/day
Decay rate:       1.65e-06 rev/day^2
Epoch rev:           30971
Checksum:              308

Satellite: AO-40
Catalog number: 26609
Epoch time:      04272.16567843
Element set:     438
Inclination:        9.6951 deg
RA of node:       341.2883 deg
Eccentricity:    0.7963935
Arg of perigee:   324.2100 deg
Mean anomaly:       3.0065 deg
Mean motion:    1.25585554 rev/day
Decay rate:      -1.38e-06 rev/day^2
Epoch rev:            1796
Checksum:              310



Read previous mail | Read next mail


 14.06.2026 22:01:53lGo back Go up